STARLINK-31126, 58675

Orbit data source: Space-Track

STARLINK-31126, 58675 is a payload satellite owned by SpaceX/Seattle (US) in LEO that was launched on Fri, 29 Dec 2023 UTC via an FALCON 9 launch vehicle from the Air Force Eastern Test Range (AFETR). Payload-class satellites include a variety of spacecraft equipped with specific instruments for various scientific and technological missions. These include communications satellites like Starlink; space stations such as the ISS; scientific satellites like the Hubble; Earth observation satellites from companies like Planet Labs, Umbra, and HawkEye 360; GPS; miniature CubeSats for education and research; and military/defense satellites.

Loading next visibility...
Identifier
58675, 2023-211J
Orbit
LEO
Country
Flag of USUS
Related business
Manufacturer
SpaceX/Seattle
Mission
Operational Commercial Communications
Bus & Motor
STARLINK V2M, Unknown motor
Mass
730 kg wet, ~700 kg dry
Launch date (UTC)
2023-12-29 (2 years ago)
Launch vehicle
FALCON 9
Launch site
Air Force Eastern Test Range (AFETR)
Object type
Payload
Rocket body
Debris
Shape & HBR
Box + 2 Pan, 17.7 m
Radar Cross Section
33.884 m², Large (>1 m²)

Expand to show TLE details & history
Last TLE update: 2 days ago

TLE from 2 days ago
0 STARLINK-31126
1 58675U 23211J   26171.43637139  .00000551  00000-0  29562-4 0  9992
2 58675  43.0020 224.5620 0001426 274.0131  86.0558 15.27578010138183
Epoch: 2026-06-20T10:28Z
TLE epoch observation values (Epoch: 2026-06-20T10:28:22.488Z)
Latitude
0.00002°
Longitude
158.81731°
Altitude
482.764 km
Speed
7.626 km/s
True Right ascension
14h 58m 14s
True Declination
0° 00' 00"
Sunlit
Object was in full shadow at epoch
Visualization orbit readout
Latitude
Unknown
Longitude
Unknown
Altitude
Unknown
Speed
Unknown
Apparent Right ascension
Unknown
Apparent Declination
Unknown
Sunlit
N/A
Visualization observer readout
Local Sidereal Time
21:23:25
Azimuth
Unknown
Elevation
Unknown
Doppler factor
Unknown
Orbital elements
Apogee altitude
485.979 km
Perigee altitude
484.021 km
Semi-major axis
6,863.137 km
Eccentricity
0.00014
Inclination
43.002°
RAAN
224.562°
Arg. of periapsis
274.0131°
True anomaly
86.0721°
Mean anomaly
86.0558°
Eccentric anomaly
86.06395°
Mean motion
3.81733 °/min
Orbital period
94.31 mins
BSTAR
0.000029562
Loading maneuver chart data...
Computing Atmospheric mass density...
Loading historical data...
Loading historical data...
Loading historical data...
Loading historical data...
Loading historical data...
Loading historical data...
Loading historical data...

Documentation

Showing up to 5 results
|